VIV617 MMAA-MMMX

Flight info

Callsign VIV617
Flight time 0h 47m
Altitude 36000
Route ALNUS1B ALNUS UT117 ESPOS ESPOS4B
Aircraft A321/M-SDE3FGHIRWY/LB1

Departure

Time 2026-04-24 02:24
Airport General Juan N. Álvarez International Airport (MMAA)

Arrival

Time 2026-04-24 03:11
Airport Mexico City Benito Juárez International Airport (MMMX)
Time Latitude Longitude Altitude Speed Heading
2026-04-24 02:10 16.76144 -99.75556 17 ft 0 kts 19°
2026-04-24 02:12 16.76143 -99.75556 17 ft 0 kts 19°
2026-04-24 02:16 16.76137 -99.75558 18 ft 2 kts 19°
2026-04-24 02:16 16.76136 -99.75558 18 ft 2 kts 19°
2026-04-24 02:16 16.76112 -99.75567 18 ft 4 kts 19°
2026-04-24 02:16 16.76088 -99.75576 18 ft 3 kts 22°
2026-04-24 02:17 16.76065 -99.75586 19 ft 4 kts 27°
2026-04-24 02:17 16.76053 -99.75594 18 ft 2 kts 62°
2026-04-24 02:17 16.76051 -99.75605 18 ft 2 kts 110°
2026-04-24 02:17 16.76053 -99.75610 18 ft 0 kts 104°
2026-04-24 02:19 16.76052 -99.75609 18 ft 1 kts 104°
2026-04-24 02:19 16.76036 -99.75549 18 ft 14 kts 108°
2026-04-24 02:19 16.76000 -99.75442 19 ft 17 kts 117°
2026-04-24 02:20 16.75909 -99.75351 18 ft 19 kts 129°
2026-04-24 02:20 16.75858 -99.75211 18 ft 22 kts 108°
2026-04-24 02:20 16.75805 -99.75051 18 ft 25 kts 109°
2026-04-24 02:20 16.75756 -99.74897 17 ft 20 kts 108°
2026-04-24 02:21 16.75711 -99.74750 18 ft 23 kts 108°
2026-04-24 02:21 16.75659 -99.74583 17 ft 26 kts 108°
2026-04-24 02:21 16.75606 -99.74413 17 ft 24 kts 108°
2026-04-24 02:21 16.75548 -99.74235 18 ft 27 kts 109°
2026-04-24 02:22 16.75495 -99.74069 19 ft 18 kts 108°
2026-04-24 02:22 16.75454 -99.73936 18 ft 21 kts 108°
2026-04-24 02:22 16.75406 -99.73782 17 ft 24 kts 108°
2026-04-24 02:22 16.75353 -99.73609 17 ft 26 kts 107°
2026-04-24 02:23 16.75295 -99.73421 19 ft 21 kts 108°
2026-04-24 02:23 16.75226 -99.73323 18 ft 18 kts 168°
2026-04-24 02:23 16.75155 -99.73345 19 ft 0 kts 201°
2026-04-24 02:23 16.75151 -99.73346 19 ft 3 kts 201°
2026-04-24 02:24 16.75100 -99.73407 19 ft 16 kts 264°
2026-04-24 02:24 16.75189 -99.73732 18 ft 89 kts 289°
2026-04-24 02:24 16.75464 -99.74607 63 ft 156 kts 286°
2026-04-24 02:24 16.75796 -99.75688 801 ft 158 kts 285°
2026-04-24 02:25 16.76131 -99.76794 1661 ft 159 kts 288°
2026-04-24 02:25 16.76472 -99.77893 2304 ft 165 kts 287°
2026-04-24 02:25 16.76853 -99.79104 2624 ft 186 kts 288°
2026-04-24 02:25 16.77280 -99.80460 2864 ft 207 kts 288°
2026-04-24 02:26 16.77732 -99.81894 3384 ft 208 kts 288°
2026-04-24 02:26 16.78185 -99.83331 3923 ft 211 kts 288°
2026-04-24 02:26 16.78643 -99.84785 4617 ft 211 kts 287°
2026-04-24 02:26 16.79111 -99.86249 5242 ft 214 kts 290°
2026-04-24 02:27 16.79933 -99.87556 5803 ft 221 kts 316°
2026-04-24 02:27 16.81266 -99.88373 6013 ft 226 kts 342°
2026-04-24 02:27 16.82783 -99.88790 6024 ft 225 kts 345°
2026-04-24 02:27 16.84352 -99.89214 6000 ft 251 kts 345°
2026-04-24 02:28 16.86147 -99.89703 6017 ft 275 kts 345°
2026-04-24 02:28 16.88014 -99.90216 6029 ft 279 kts 345°
2026-04-24 02:28 16.89892 -99.90733 6029 ft 280 kts 344°
2026-04-24 02:28 16.91778 -99.91255 6035 ft 281 kts 345°
2026-04-24 02:29 16.93645 -99.91761 6971 ft 268 kts 348°
2026-04-24 02:29 16.95437 -99.91878 8362 ft 250 kts
2026-04-24 02:29 16.97108 -99.91481 9475 ft 247 kts 20°
2026-04-24 02:29 16.98703 -99.90606 9904 ft 271 kts 31°
2026-04-24 02:30 17.00382 -99.89536 10251 ft 295 kts 31°
2026-04-24 02:30 17.02199 -99.88375 10545 ft 319 kts 31°
2026-04-24 02:30 17.04155 -99.87129 10921 ft 337 kts 31°
2026-04-24 02:30 17.06177 -99.85846 11607 ft 343 kts 31°
2026-04-24 02:31 17.08235 -99.84543 12374 ft 347 kts 30°
2026-04-24 02:31 17.10312 -99.83231 13142 ft 351 kts 30°
2026-04-24 02:31 17.12419 -99.81903 13882 ft 355 kts 30°
2026-04-24 02:31 17.14546 -99.80563 14540 ft 359 kts 30°
2026-04-24 02:32 17.16692 -99.79210 15235 ft 362 kts 30°
2026-04-24 02:32 17.18879 -99.77869 15929 ft 365 kts 26°
2026-04-24 02:32 17.21102 -99.76948 16575 ft 368 kts 15°
2026-04-24 02:32 17.23578 -99.76476 17253 ft 372 kts
2026-04-24 02:33 17.26180 -99.76468 17937 ft 375 kts 359°
2026-04-24 02:33 17.28803 -99.76531 18565 ft 379 kts 359°
2026-04-24 02:33 17.31450 -99.76590 19185 ft 382 kts 359°
2026-04-24 02:33 17.34117 -99.76646 19785 ft 385 kts 359°
2026-04-24 02:34 17.36803 -99.76699 19962 ft 386 kts 359°
2026-04-24 02:34 17.39493 -99.76752 20090 ft 389 kts 359°
2026-04-24 02:34 17.42209 -99.76807 20730 ft 391 kts 359°
2026-04-24 02:34 17.44939 -99.76865 21378 ft 394 kts 358°
2026-04-24 02:35 17.47688 -99.76925 21980 ft 397 kts 358°
2026-04-24 02:35 17.50458 -99.76984 22592 ft 400 kts 358°
2026-04-24 02:35 17.53251 -99.77045 23165 ft 403 kts 358°
2026-04-24 02:35 17.56074 -99.77106 23697 ft 407 kts 358°
2026-04-24 02:36 17.58916 -99.77166 24172 ft 410 kts 358°
2026-04-24 02:36 17.61776 -99.77226 24639 ft 413 kts 358°
2026-04-24 02:36 17.64656 -99.77289 25104 ft 415 kts 358°
2026-04-24 02:36 17.67556 -99.77352 25566 ft 418 kts 358°
2026-04-24 02:37 17.70472 -99.77415 26017 ft 420 kts 358°
2026-04-24 02:37 17.73404 -99.77477 26464 ft 423 kts 358°
2026-04-24 02:37 17.76359 -99.77539 26909 ft 426 kts 358°
2026-04-24 02:37 17.79328 -99.77613 27365 ft 428 kts 358°
2026-04-24 02:38 17.82314 -99.77739 27815 ft 431 kts 356°
2026-04-24 02:38 17.85320 -99.77904 28260 ft 434 kts 356°
2026-04-24 02:38 17.88340 -99.78089 28703 ft 436 kts 356°
2026-04-24 02:38 17.91382 -99.78277 29140 ft 439 kts 356°
2026-04-24 02:39 17.94441 -99.78460 29572 ft 442 kts 356°
2026-04-24 02:39 17.97518 -99.78632 29977 ft 445 kts 356°
2026-04-24 02:39 18.00618 -99.78796 30335 ft 447 kts 356°
2026-04-24 02:39 18.03735 -99.78958 30697 ft 450 kts 356°
2026-04-24 02:40 18.06872 -99.79122 31069 ft 452 kts 356°
2026-04-24 02:40 18.10009 -99.79289 31586 ft 451 kts 356°
2026-04-24 02:40 18.13136 -99.79456 32141 ft 449 kts 356°
2026-04-24 02:40 18.16250 -99.79624 32708 ft 447 kts 356°
2026-04-24 02:41 18.19351 -99.79793 33277 ft 445 kts 356°
2026-04-24 02:41 18.22399 -99.79958 33825 ft 444 kts 356°
2026-04-24 02:41 18.25482 -99.80122 34299 ft 443 kts 356°
2026-04-24 02:41 18.28556 -99.80286 34748 ft 443 kts 356°
2026-04-24 02:42 18.31634 -99.80449 35199 ft 442 kts 356°
2026-04-24 02:42 18.34708 -99.80611 35652 ft 442 kts 356°
2026-04-24 02:42 18.37785 -99.80774 35863 ft 446 kts 356°
2026-04-24 02:42 18.40879 -99.80941 35928 ft 442 kts 356°
2026-04-24 02:43 18.43953 -99.81109 35564 ft 444 kts 356°
2026-04-24 02:43 18.47076 -99.81281 34565 ft 454 kts 356°
2026-04-24 02:43 18.50220 -99.81449 34032 ft 451 kts 356°
2026-04-24 02:43 18.53348 -99.81616 33439 ft 448 kts 356°
2026-04-24 02:44 18.56446 -99.81783 32898 ft 445 kts 356°
2026-04-24 02:44 18.59531 -99.81951 32316 ft 443 kts 356°
2026-04-24 02:44 18.62597 -99.82119 31750 ft 440 kts 356°
2026-04-24 02:44 18.65647 -99.82246 31180 ft 438 kts
2026-04-24 02:45 18.68649 -99.81788 30618 ft 438 kts 14°
2026-04-24 02:45 18.71458 -99.80547 30043 ft 439 kts 28°
2026-04-24 02:45 18.73869 -99.78588 29627 ft 438 kts 43°
2026-04-24 02:45 18.75767 -99.76069 29359 ft 441 kts 56°
2026-04-24 02:46 18.77139 -99.73166 29103 ft 443 kts 63°
2026-04-24 02:46 18.78421 -99.70189 28851 ft 451 kts 63°
2026-04-24 02:46 18.79715 -99.67152 28661 ft 456 kts 63°
2026-04-24 02:46 18.81012 -99.64084 28541 ft 458 kts 64°
2026-04-24 02:47 18.82298 -99.61024 28412 ft 457 kts 64°
2026-04-24 02:47 18.83589 -99.57949 28293 ft 457 kts 64°
2026-04-24 02:47 18.84878 -99.54888 28171 ft 456 kts 63°
2026-04-24 02:47 18.86172 -99.51836 28053 ft 455 kts 63°
2026-04-24 02:48 18.87468 -99.48789 27930 ft 454 kts 63°
2026-04-24 02:48 18.88759 -99.45750 27817 ft 454 kts 63°
2026-04-24 02:48 18.89921 -99.43007 27707 ft 453 kts 63°
2026-04-24 02:48 18.91220 -99.39932 27587 ft 452 kts 64°
2026-04-24 02:49 18.92494 -99.36903 27465 ft 451 kts 64°
2026-04-24 02:49 18.93753 -99.33875 27339 ft 450 kts 64°
2026-04-24 02:49 18.95000 -99.30838 27224 ft 450 kts 64°
2026-04-24 02:49 18.96233 -99.27808 27097 ft 449 kts 64°
2026-04-24 02:50 18.97461 -99.24775 26974 ft 449 kts 64°
2026-04-24 02:50 18.98689 -99.21745 26847 ft 448 kts 64°
2026-04-24 02:50 18.99922 -99.18721 26726 ft 447 kts 64°
2026-04-24 02:50 19.01151 -99.15716 26591 ft 446 kts 64°
2026-04-24 02:51 19.02387 -99.12700 26476 ft 446 kts 64°
2026-04-24 02:51 19.03615 -99.09701 26355 ft 444 kts 64°
2026-04-24 02:51 19.04840 -99.06704 26338 ft 444 kts 64°
2026-04-24 02:51 19.06065 -99.03706 26322 ft 444 kts 64°
2026-04-24 02:52 19.07288 -99.00706 26190 ft 444 kts 64°
2026-04-24 02:52 19.08459 -98.97834 26054 ft 443 kts 64°
2026-04-24 02:52 19.09662 -98.94883 25875 ft 442 kts 64°
2026-04-24 02:52 19.10875 -98.91909 25624 ft 440 kts 64°
2026-04-24 02:53 19.12087 -98.88934 25392 ft 439 kts 64°
2026-04-24 02:53 19.13292 -98.85978 25163 ft 437 kts 64°
2026-04-24 02:53 19.14732 -98.83169 24862 ft 433 kts 54°
2026-04-24 02:53 19.16426 -98.80550 24306 ft 430 kts 53°
2026-04-24 02:54 19.18121 -98.77965 23815 ft 426 kts 53°
2026-04-24 02:54 19.19814 -98.75401 23280 ft 423 kts 53°
2026-04-24 02:54 19.21489 -98.72862 22794 ft 419 kts 53°
2026-04-24 02:54 19.23146 -98.70343 22337 ft 415 kts 53°
2026-04-24 02:55 19.24786 -98.67845 21869 ft 412 kts 53°
2026-04-24 02:55 19.26413 -98.65359 21403 ft 409 kts 53°
2026-04-24 02:55 19.28026 -98.62893 20942 ft 406 kts 53°
2026-04-24 02:55 19.29625 -98.60449 20472 ft 402 kts 53°
2026-04-24 02:56 19.31208 -98.58024 20015 ft 399 kts 53°
2026-04-24 02:56 19.32781 -98.55618 19560 ft 396 kts 53°
2026-04-24 02:56 19.34341 -98.53232 19105 ft 393 kts 53°
2026-04-24 02:56 19.35890 -98.50859 18614 ft 391 kts 54°
2026-04-24 02:57 19.37433 -98.48492 17891 ft 390 kts 54°
2026-04-24 02:57 19.38927 -98.46203 17423 ft 367 kts 52°
2026-04-24 02:57 19.40660 -98.44222 17001 ft 364 kts 37°
2026-04-24 02:57 19.42787 -98.42839 16565 ft 356 kts 22°
2026-04-24 02:58 19.45138 -98.42104 16117 ft 351 kts
2026-04-24 02:58 19.47564 -98.42036 15664 ft 347 kts 353°
2026-04-24 02:58 19.49948 -98.42408 15223 ft 345 kts 351°
2026-04-24 02:58 19.52271 -98.42784 14881 ft 338 kts 351°
2026-04-24 02:59 19.54546 -98.43152 14789 ft 323 kts 351°
2026-04-24 02:59 19.56737 -98.43503 14800 ft 306 kts 350°
2026-04-24 02:59 19.58787 -98.43830 14800 ft 291 kts 350°
2026-04-24 02:59 19.60737 -98.44151 14800 ft 286 kts 347°
2026-04-24 03:00 19.62668 -98.44686 14806 ft 296 kts 340°
2026-04-24 03:00 19.64497 -98.45819 14685 ft 310 kts 318°
2026-04-24 03:00 19.66013 -98.47405 14504 ft 301 kts 314°
2026-04-24 03:00 19.67437 -98.48987 14318 ft 293 kts 313°
2026-04-24 03:01 19.68570 -98.50757 14076 ft 290 kts 294°
2026-04-24 03:01 19.69001 -98.52831 13906 ft 290 kts 271°
2026-04-24 03:01 19.68637 -98.54944 13909 ft 295 kts 251°
2026-04-24 03:01 19.67858 -98.56968 13911 ft 297 kts 250°
2026-04-24 03:02 19.67063 -98.58988 13910 ft 294 kts 249°
2026-04-24 03:02 19.66285 -98.60949 13904 ft 286 kts 249°
2026-04-24 03:02 19.65514 -98.62897 13901 ft 286 kts 250°
2026-04-24 03:02 19.64749 -98.64843 13903 ft 287 kts 250°
2026-04-24 03:03 19.64067 -98.66576 13911 ft 287 kts 250°
2026-04-24 03:03 19.63531 -98.67935 13925 ft 287 kts 250°
2026-04-24 03:03 19.62761 -98.69888 13932 ft 287 kts 250°
2026-04-24 03:03 19.61991 -98.71849 13429 ft 288 kts 249°
2026-04-24 03:04 19.61222 -98.73804 12675 ft 286 kts 249°
2026-04-24 03:04 19.60465 -98.75726 12156 ft 277 kts 249°
2026-04-24 03:04 19.59755 -98.77523 12003 ft 249 kts 250°
2026-04-24 03:04 19.59106 -98.79101 11901 ft 218 kts 246°
2026-04-24 03:05 19.58432 -98.80438 11704 ft 197 kts 242°
2026-04-24 03:05 19.57695 -98.81782 11503 ft 223 kts 241°
2026-04-24 03:05 19.56894 -98.83219 11266 ft 228 kts 240°
2026-04-24 03:05 19.56110 -98.84621 11020 ft 213 kts 240°
2026-04-24 03:06 19.55378 -98.85930 10815 ft 201 kts 240°
2026-04-24 03:06 19.54687 -98.87169 10630 ft 188 kts 240°
2026-04-24 03:06 19.54060 -98.88289 10477 ft 165 kts 240°
2026-04-24 03:06 19.53489 -98.89311 10306 ft 158 kts 239°
2026-04-24 03:07 19.52936 -98.90302 10152 ft 155 kts 239°
2026-04-24 03:07 19.52388 -98.91282 10033 ft 154 kts 239°
2026-04-24 03:07 19.51845 -98.92254 9977 ft 154 kts 239°
2026-04-24 03:07 19.51302 -98.93225 9833 ft 153 kts 239°
2026-04-24 03:08 19.50762 -98.94189 9669 ft 152 kts 240°
2026-04-24 03:08 19.49690 -98.96107 9333 ft 150 kts 239°
2026-04-24 03:08 19.49157 -98.97059 9205 ft 150 kts 239°
2026-04-24 03:09 19.48628 -98.98005 9074 ft 149 kts 238°
2026-04-24 03:09 19.48099 -98.98949 8950 ft 149 kts 237°
2026-04-24 03:09 19.47569 -98.99896 8776 ft 149 kts 238°
2026-04-24 03:09 19.47038 -99.00845 8566 ft 149 kts 237°
2026-04-24 03:10 19.46508 -99.01790 8294 ft 148 kts 238°
2026-04-24 03:10 19.45988 -99.02719 8016 ft 145 kts 239°
2026-04-24 03:10 19.45482 -99.03627 7766 ft 143 kts 239°
2026-04-24 03:10 19.44977 -99.04535 7549 ft 142 kts 239°
2026-04-24 03:11 19.44468 -99.05428 7358 ft 142 kts 238°
2026-04-24 03:11 19.43998 -99.06269 7303 ft 119 kts 239°
2026-04-24 03:11 19.43648 -99.06897 7302 ft 75 kts 239°
2026-04-24 03:11 19.43467 -99.07225 7302 ft 36 kts 240°
2026-04-24 03:12 19.43370 -99.07422 7304 ft 22 kts 246°
2026-04-24 03:12 19.43326 -99.07595 7303 ft 26 kts 269°
2026-04-24 03:12 19.43324 -99.07784 7303 ft 19 kts 269°
2026-04-24 03:12 19.43321 -99.07931 7303 ft 21 kts 269°
2026-04-24 03:13 19.43364 -99.08074 7303 ft 18 kts 319°
2026-04-24 03:13 19.43413 -99.08105 7303 ft 6 kts 323°
2026-04-24 03:13 19.43402 -99.08137 7303 ft 10 kts 240°
2026-04-24 03:13 19.43349 -99.08234 7303 ft 18 kts 240°
2026-04-24 03:14 19.43277 -99.08363 7303 ft 17 kts 238°
2026-04-24 03:14 19.43232 -99.08467 7303 ft 12 kts 281°
2026-04-24 03:14 19.43294 -99.08516 7303 ft 0 kts 328°